Weather History for Cheraw, SC

Change the Weather History Date:

Sunday, September 9, 2012

  Actual Average (KFLO) Record (KFLO)
Temperature  
Mean Temperature 69 °F 76 °F  
Max Temperature 78 °F 86 °F 97 °F (1954)
Min Temperature 60 °F 67 °F 53 °F (1951)
Degree Days  
Heating Degree Days 0 0  
Month to date heating degree days 0  
Since 1 July heating degree days 0  
Cooling Degree Days 4 11  
Month to date cooling degree days 110  
Year to date cooling degree days 1780  
Growing Degree Days 19 (Base 50)    
Moisture  
Dew Point 62 °F    
Average Humidity 81    
Maximum Humidity 100    
Minimum Humidity 47    
Precipitation  
Precipitation 0.05 in 0.13 in 2.30 in (1967)
Month to date precipitation 1.21  
Year to date precipitation 31.69  
Sea Level Pressure  
Sea Level Pressure 29.90 in    
Wind  
Wind Speed - (North)    
Max Wind Speed -    
Max Gust Speed -    
Visibility 10 miles    
Events Rain    
T = Trace of Precipitation, MM = Missing Value Source: NWS Daily Summary

Daily Weather History Graph

Daily Weather History Graph

Search for Another Location

Airport:

Trip Planner

Search our weather history database for the weather conditions in past years. The results will help you decide how hot, cold, wet, or windy it might be!

Date:

Astronomy

Sep. 09, 2012 Rise Set
Actual Time 6:58 AM EDT 7:34 PM EDT
Civil Twilight 6:33 AM EDT 7:59 PM EDT
Nautical Twilight 6:03 AM EDT 8:29 PM EDT
Astronomical Twilight 5:32 AM EDT 9:00 PM EDT
Moon 12:37 AM EDT (9/9) 3:08 PM EDT (9/9)
Length of Visible Light 13h 26m
Length of Day
12h 35m
Last Quarter, 39% of the Moon is Illuminated
Sep 9
Last Quarter
Sep 15
New
Sep 22
First Quarter
Sep 29
Full
Oct 8
Last Quarter

Hourly Weather History & Observations

Time (EDT) Temp. Dew Point Humidity Pressure Visibility Wind Dir Wind Speed Gust Speed Precip Events Conditions
12:15 AM 71.6 °F 71.6 °F 100% 29.81 in 4.0 mi North - - 0.03 in Rain Light Rain
12:55 AM 71.6 °F 71.6 °F 100% 29.82 in 10.0 mi North - - 0.04 in   Overcast
1:15 AM 71.6 °F 71.6 °F 100% 29.82 in 9.0 mi North - - N/A   Overcast
1:35 AM 71.6 °F 71.6 °F 100% 29.82 in 6.0 mi North - - N/A   Light Drizzle
1:55 AM 69.8 °F 69.8 °F 100% 29.83 in 5.0 mi North - - 0.01 in Rain Light Rain
2:15 AM 68.0 °F 66.2 °F 94% 29.82 in 9.0 mi North - - N/A   Overcast
2:35 AM 66.2 °F 66.2 °F 100% 29.82 in 10.0 mi North - - N/A   Overcast
2:55 AM 66.2 °F 66.2 °F 100% 29.83 in 10.0 mi North - - N/A   Overcast
3:15 AM 66.2 °F 64.4 °F 94% 29.83 in 10.0 mi North - - N/A   Overcast
3:35 AM 66.2 °F 64.4 °F 94% 29.82 in 10.0 mi North - - N/A   Mostly Cloudy
3:55 AM 66.2 °F 64.4 °F 94% 29.83 in 10.0 mi North - - N/A   Overcast
4:15 AM 66.2 °F 64.4 °F 94% 29.83 in 10.0 mi North - - N/A   Overcast
4:35 AM 66.2 °F 64.4 °F 94% 29.83 in 10.0 mi North - - N/A   Overcast
4:55 AM 66.2 °F 64.4 °F 94% 29.84 in 10.0 mi North - - N/A   Overcast
5:15 AM 66.2 °F 62.6 °F 88% 29.84 in 10.0 mi North - - N/A   Overcast
5:35 AM 66.2 °F 62.6 °F 88% 29.84 in 10.0 mi North - - N/A   Overcast
5:55 AM 64.4 °F 62.6 °F 94% 29.85 in 10.0 mi North - - N/A   Overcast
6:15 AM 64.4 °F 62.6 °F 94% 29.86 in 10.0 mi North - - N/A   Overcast
6:35 AM 64.4 °F 62.6 °F 94% 29.86 in 10.0 mi North - - N/A   Overcast
6:55 AM 64.4 °F 62.6 °F 94% 29.86 in 10.0 mi North - - N/A   Overcast
7:15 AM 64.4 °F 62.6 °F 94% 29.87 in 10.0 mi North - - N/A   Overcast
7:35 AM 64.4 °F 62.6 °F 94% 29.88 in 10.0 mi North - - N/A   Overcast
7:55 AM 64.4 °F 60.8 °F 88% 29.89 in 10.0 mi North - - N/A   Overcast
8:15 AM 64.4 °F 60.8 °F 88% 29.90 in 10.0 mi North - - N/A   Overcast
8:35 AM 64.4 °F 60.8 °F 88% 29.90 in 10.0 mi North - - N/A   Overcast
8:55 AM 64.4 °F 60.8 °F 88% 29.90 in 10.0 mi North - - N/A   Mostly Cloudy
9:15 AM 66.2 °F 60.8 °F 83% 29.90 in 10.0 mi North - - N/A   Mostly Cloudy
9:35 AM 66.2 °F 60.8 °F 83% 29.91 in 10.0 mi North - - N/A   Overcast
9:55 AM 66.2 °F 60.8 °F 83% 29.92 in 10.0 mi North - - N/A   Mostly Cloudy
10:15 AM 68.0 °F 62.6 °F 83% 29.92 in 10.0 mi North - - N/A   Mostly Cloudy
10:35 AM 69.8 °F 62.6 °F 78% 29.92 in 10.0 mi North - - N/A   Mostly Cloudy
10:55 AM 71.6 °F 62.6 °F 73% 29.92 in 10.0 mi North - - N/A   Scattered Clouds
11:35 AM 73.4 °F 62.6 °F 69% 29.92 in 10.0 mi North - - N/A   Clear
12:15 PM 75.2 °F 62.6 °F 65% 29.93 in 10.0 mi North - - N/A   Clear
12:35 PM 75.2 °F 60.8 °F 61% 29.93 in 10.0 mi North - - N/A   Partly Cloudy
12:55 PM 75.2 °F 60.8 °F 61% 29.93 in 10.0 mi North - - N/A   Scattered Clouds
1:15 PM 75.2 °F 62.6 °F 65% 29.92 in 10.0 mi North - - N/A   Scattered Clouds
1:35 PM 77.0 °F 62.6 °F 61% 29.92 in 10.0 mi North - - N/A   Scattered Clouds
1:55 PM 75.2 °F 60.8 °F 61% 29.91 in 10.0 mi North - - N/A   Mostly Cloudy
2:15 PM 75.2 °F 60.8 °F 61% 29.91 in 10.0 mi North - - N/A   Mostly Cloudy
2:35 PM 75.2 °F 60.8 °F 61% 29.90 in 10.0 mi North - - N/A   Mostly Cloudy
2:55 PM 78.8 °F 62.6 °F 57% 29.89 in 10.0 mi North - - N/A   Partly Cloudy
3:15 PM 77.0 °F 60.8 °F 57% 29.89 in 10.0 mi North - - N/A   Mostly Cloudy
3:35 PM 77.0 °F 60.8 °F 57% 29.89 in 10.0 mi North - - N/A   Mostly Cloudy
3:55 PM 77.0 °F 60.8 °F 57% 29.89 in 10.0 mi North - - N/A   Partly Cloudy
4:15 PM 78.8 °F 60.8 °F 54% 29.89 in 10.0 mi North - - N/A   Scattered Clouds
4:35 PM 77.0 °F 57.2 °F 50% 29.89 in 10.0 mi North - - N/A   Mostly Cloudy
5:15 PM 78.8 °F 57.2 °F 47% 29.90 in 10.0 mi North - - N/A   Clear
5:35 PM 77.0 °F 55.4 °F 47% 29.90 in 10.0 mi North - - N/A   Clear
5:55 PM 77.0 °F 55.4 °F 47% 29.91 in 10.0 mi North - - N/A   Clear
6:15 PM 75.2 °F 55.4 °F 50% 29.92 in 10.0 mi North - - N/A   Clear
6:35 PM 75.2 °F 57.2 °F 53% 29.92 in 10.0 mi North - - N/A   Clear
6:55 PM 73.4 °F 60.8 °F 65% 29.92 in 10.0 mi North - - N/A   Clear
7:15 PM 69.8 °F 60.8 °F 73% 29.93 in 10.0 mi North - - N/A   Clear
7:35 PM 66.2 °F 62.6 °F 88% 29.93 in 10.0 mi North - - N/A   Clear
7:55 PM 66.2 °F 60.8 °F 83% 29.93 in 10.0 mi North - - N/A   Clear
8:15 PM 64.4 °F 60.8 °F 88% 29.94 in 10.0 mi North - - N/A   Clear
8:35 PM 64.4 °F 60.8 °F 88% 29.95 in 10.0 mi North - - N/A   Clear
8:55 PM 64.4 °F 60.8 °F 88% 29.96 in 10.0 mi North - - N/A   Clear
9:15 PM 64.4 °F 60.8 °F 88% 29.97 in 10.0 mi North - - N/A   Clear
9:35 PM 62.6 °F 60.8 °F 94% 29.97 in 10.0 mi North - - N/A   Clear
9:55 PM 62.6 °F 60.8 °F 94% 29.97 in 10.0 mi North - - N/A   Clear
10:15 PM 62.6 °F 60.8 °F 94% 29.98 in 10.0 mi North - - N/A   Clear
10:35 PM 62.6 °F 60.8 °F 94% 29.98 in 10.0 mi North - - N/A   Clear
10:55 PM 60.8 °F 60.8 °F 100% 29.98 in 10.0 mi North - - N/A   Clear
11:15 PM 62.6 °F 60.8 °F 94% 29.99 in 10.0 mi North - - N/A   Clear
11:35 PM 60.8 °F 60.8 °F 100% 29.99 in 10.0 mi North - - N/A   Clear
11:55 PM 60.8 °F 60.8 °F 100% 29.99 in 10.0 mi North - - N/A   Clear